Content
SEND FEEDBACK

Daily
Averages
Monthly
Summary
India

JAIPUR, INDIA


Home > Asia > India
Elevation: 1279 feet     Latitude: 26 49N     Longitude: 075 48E

WEATHER
 
SELECT A DAY
Number of Records: 101,244;   Date Range: 10/1/99 - 11/22/14
 
SHARE

PRINT THIS DATA

[ ← Previous Day ]
WEATHER ALMANAC - OCTOBER 22, 2013
[ Next Day → ]
[ °C ]   °F
Weather ElementAverageHighLow
Temperature79.9 °F93.2 °F (3:00 pm)66.2 °F (7:00 am)
Dewpoint46.7 °F55.4 °F (8:00 am)39.2 °F (2:00 pm)
Humidity31.7 %53 % (8:00 am)11 % (2:30 pm)
Barometer29.89 in29.98 in (10:00 am)29.78 in (2:30 pm)
Wind Speed2.1 mph6.9 mph (2:00 pm)
Weather ElementAverage
Visibility2 mi
Wind DirectionENE (56.7 °)

Weather ElementTotal
Precipitation---
Cooling Degree Days14.7 (Base 65)
Growing Degree Days29.7 (Base 50)
Averaged from 27 records on October 22, 2013
WEATHER CONDITIONS BREAKOUT
WIND DIRECTION BREAKOUT
WEATHER BY HOUR - OCTOBER 22, 2013
[ °C ]   °F
Local TimeTemperatureDewpointHumidityBarometerVisibilityWind DirectionWind SpeedGust SpeedPrecipitationEventsConditions
1:00 AM69.8 °F48.2 °F46 %29.89 in1.2 miCalmSmoke
2:30 AM68.0 °F50.0 °F42 %29.83 in1.0 miCalmSmoke
3:00 AM68.0 °F48.2 °F49 %29.89 in1.2 miCalmSmoke
4:00 AM68.0 °F46.4 °F46 %29.89 in1.2 miCalmSmoke
5:00 AM68.0 °F46.4 °F46 %29.89 in1.2 miCalmSmoke
6:00 AM68.0 °F46.4 °F46 %29.89 in1.2 miCalmSmoke
7:00 AM66.2 °F48.2 °F52 %29.89 in1.2 miCalmSmoke
8:00 AM73.4 °F55.4 °F53 %29.92 in1.6 miCalmSmoke
10:00 AM86.0 °F48.2 °F27 %29.98 in2.5 miCalmHaze
11:30 AM91.0 °F45.0 °F12 %29.85 in2.0 miSSW (200°)4.6 mphHaze
12:00 PM89.6 °F44.6 °F21 %29.95 in3.1 miSouth (190°)5.8 mphHaze
1:00 PM91.4 °F42.8 °F18 %29.92 in3.1 miSSW (210°)5.8 mphHaze
2:00 PM91.4 °F39.2 °F16 %29.89 in3.1 miSW (230°)6.9 mphHaze
2:30 PM92.0 °F44.0 °F11 %29.78 in2.0 miWNW (290°)2.3 mphHaze
3:00 PM93.2 °F39.2 °F15 %29.89 in3.1 miVariable4.6 mphHaze
4:00 PM93.2 °F39.2 °F15 %29.86 in3.1 miVariable3.5 mphHaze
5:00 PM91.4 °F44.6 °F20 %29.89 in3.1 miVariable3.5 mphHaze
5:30 PM90.0 °F45.0 °F12 %29.78 in2.0 miESE (110°)4.6 mphHaze
6:00 PM86.0 °F44.6 °F23 %29.89 in3.1 miSE (130°)5.8 mphHaze
6:30 PM82.4 °F48.2 °F30 %29.89 in2.2 miCalmHaze
8:00 PM75.2 °F50.0 °F41 %29.92 in1.2 miCalmSmoke
8:30 PM80.0 °F52.0 °F27 %29.85 in1.0 mi°2.3 mphSmoke
9:00 PM77.0 °F48.2 °F36 %29.92 in1.6 miVariable2.3 mphSmoke
9:30 PM75.2 °F50.0 °F41 %29.95 in1.6 miVariable1.2 mphSmoke
10:00 PM77.0 °F48.2 °F36 %29.95 in1.6 miVariable2.3 mphSmoke
11:00 PM73.4 °F48.2 °F41 %29.95 in1.6 miCalmSmoke
11:30 PM72.0 °F50.0 °F34 %29.88 in2.0 miCalmSmoke
Hourly data recorded from VIJP, located miles away from Jaipur, India







STORIES FROM OUR PARTNERS